| time (UTC) | temp C | wind direction | speed KPH | gust KPH | rain 1hr cm | rain 24hr cm | rain mn cm | humidity % | barometer mb |
| 20260506014520 | 3 | 35 | 0.0 | 4.8 | 0.00 | 0.00 | 0.00 | 79 | 1015.7 |
| 20260506013019 | 3 | 359 | 0.0 | 4.8 | 0.00 | 0.00 | 0.00 | 79 | 1015.6 |
| 20260506011528 | 3 | 341 | 1.6 | 6.4 | 0.00 | 0.00 | 0.00 | 79 | 1015.6 |
| 20260506010018 | 3 | 343 | 3.2 | 8.0 | 0.00 | 0.00 | 0.00 | 79 | 1015.5 |
| 20260506004530 | 3 | 333 | 3.2 | 8.0 | 0.00 | 0.00 | 0.00 | 80 | 1015.5 |
| 20260506003020 | 3 | 339 | 0.0 | 6.4 | 0.00 | 0.00 | 0.00 | 79 | 1015.6 |
| 20260506001515 | 3 | 327 | 1.6 | 4.8 | 0.00 | 0.00 | 0.00 | 79 | 1015.7 |
| 20260506000017 | 3 | 330 | 1.6 | 8.0 | 0.00 | 0.00 | 0.00 | 78 | 1015.7 |
| 20260505234511 | 3 | 312 | 3.2 | 6.4 | 0.00 | 0.00 | 0.00 | 77 | 1015.6 |
| 20260505233011 | 3 | 359 | 3.2 | 9.7 | 0.00 | 0.00 | 0.00 | 77 | 1015.6 |
| 20260505231508 | 3 | 297 | 3.2 | 12.9 | 0.00 | 0.00 | 0.00 | 77 | 1015.4 |
| 20260505230007 | 3 | 293 | 3.2 | 8.0 | 0.00 | 0.00 | 0.00 | 77 | 1015.5 |
| 20260505224506 | 3 | 297 | 3.2 | 6.4 | 0.00 | 0.00 | 0.00 | 76 | 1015.5 |
| 20260505223006 | 4 | 314 | 3.2 | 6.4 | 0.00 | 0.00 | 0.00 | 76 | 1015.6 |
| 20260505221505 | 4 | 315 | 1.6 | 12.9 | 0.00 | 0.00 | 0.00 | 75 | 1015.5 |
| 20260505220002 | 4 | 303 | 6.4 | 14.5 | 0.00 | 0.00 | 0.00 | 75 | 1015.7 |
| 20260505214502 | 4 | 316 | 4.8 | 9.7 | 0.00 | 0.00 | 0.00 | 75 | 1015.5 |
| 20260505213001 | 4 | 282 | 4.8 | 12.9 | 0.00 | 0.00 | 0.00 | 73 | 1015.5 |
| 20260505211501 | 4 | 284 | 3.2 | 16.1 | 0.00 | 0.00 | 0.00 | 73 | 1015.5 |
| 20260505210107 | 4 | 298 | 8.0 | 16.1 | 0.00 | 0.00 | 0.00 | 72 | 1015.6 |
| 20260505204601 | 4 | 340 | 6.4 | 14.5 | 0.00 | 0.00 | 0.00 | 74 | 1015.5 |
| 20260505203100 | 4 | 310 | 3.2 | 9.7 | 0.00 | 0.00 | 0.00 | 75 | 1015.5 |
| 20260505201601 | 5 | 326 | 6.4 | 16.1 | 0.00 | 0.00 | 0.00 | 74 | 1015.6 |
| 20260505200059 | 5 | 319 | 6.4 | 16.1 | 0.00 | 0.00 | 0.00 | 72 | 1015.6 |
| 20260505194601 | 5 | 299 | 3.2 | 14.5 | 0.00 | 0.00 | 0.00 | 72 | 1015.5 |
| 20260505193125 | 5 | 314 | 3.2 | 9.7 | 0.00 | 0.00 | 0.00 | 71 | 1015.4 |
| 20260505191604 | 5 | 324 | 8.0 | 17.7 | 0.00 | 0.00 | 0.00 | 71 | 1015.3 |
| 20260505190054 | 6 | 306 | 3.2 | 14.5 | 0.00 | 0.00 | 0.00 | 68 | 1015.2 |
| 20260505184556 | 6 | 309 | 3.2 | 16.1 | 0.00 | 0.00 | 0.00 | 67 | 1015.0 |
| 20260505183054 | 6 | 330 | 1.6 | 9.7 | 0.00 | 0.00 | 0.00 | 67 | 1015.0 |
| 20260505181554 | 5 | 296 | 4.8 | 12.9 | 0.00 | 0.00 | 0.00 | 72 | 1014.9 |
| 20260505180052 | 6 | 288 | 6.4 | 17.7 | 0.00 | 0.00 | 0.00 | 69 | 1015.0 |
| 20260505174552 | 7 | 289 | 3.2 | 12.9 | 0.00 | 0.00 | 0.00 | 67 | 1015.0 |
| 20260505173051 | 7 | 329 | 4.8 | 14.5 | 0.00 | 0.00 | 0.00 | 66 | 1014.9 |
| 20260505171552 | 7 | 318 | 1.6 | 17.7 | 0.00 | 0.00 | 0.00 | 66 | 1014.9 |
| 20260505170050 | 6 | 328 | 6.4 | 14.5 | 0.00 | 0.00 | 0.00 | 64 | 1014.9 |
| 20260505164550 | 7 | 345 | 6.4 | 19.3 | 0.00 | 0.00 | 0.00 | 66 | 1015.0 |
| 20260505163050 | 7 | 308 | 4.8 | 17.7 | 0.00 | 0.00 | 0.00 | 66 | 1014.9 |
| 20260505161549 | 6 | 263 | 8.0 | 20.9 | 0.00 | 0.00 | 0.00 | 67 | 1014.9 |
| 20260505153049 | 7 | 359 | 9.7 | 19.3 | 0.00 | 0.03 | 0.00 | 63 | 1015.0 |
| 20260505151546 | 7 | 272 | 6.4 | 19.3 | 0.00 | 0.03 | 0.00 | 66 | 1014.9 |
| 20260505124541 | 6 | 328 | 9.7 | 19.3 | 0.00 | 0.03 | 0.00 | 74 | 1015.0 |
| 20260505123052 | 6 | 261 | 11.3 | 20.9 | 0.00 | 0.03 | 0.00 | 69 | 1014.7 |
| 20260505121540 | 7 | 310 | 8.0 | 14.5 | 0.00 | 0.03 | 0.00 | 65 | 1014.7 |
| 20260505120050 | 6 | 328 | 6.4 | 19.3 | 0.00 | 0.03 | 0.00 | 68 | 1014.7 |
| 20260505114537 | 7 | 359 | 8.0 | 16.1 | 0.00 | 0.03 | 0.00 | 66 | 1014.8 |
| 20260505113036 | 7 | 322 | 4.8 | 14.5 | 0.00 | 0.03 | 0.00 | 65 | 1014.7 |
| 20260505111536 | 7 | 335 | 4.8 | 12.9 | 0.00 | 0.03 | 0.00 | 66 | 1014.6 |
| 20260505101534 | 6 | 315 | 3.2 | 8.0 | 0.00 | 0.03 | 0.00 | 70 | 1014.5 |
| 20260505100032 | 6 | 299 | 4.8 | 8.0 | 0.00 | 0.03 | 0.00 | 71 | 1014.6 |
| 20260505094530 | 5 | 320 | 3.2 | 9.7 | 0.00 | 0.03 | 0.00 | 70 | 1014.6 |
| 20260505093030 | 5 | 320 | 4.8 | 12.9 | 0.00 | 0.03 | 0.00 | 68 | 1014.6 |
| 20260505091531 | 6 | 324 | 3.2 | 14.5 | 0.00 | 0.03 | 0.00 | 66 | 1014.5 |
| 20260505090026 | 6 | 311 | 3.2 | 6.4 | 0.00 | 0.03 | 0.00 | 61 | 1014.4 |
| 20260505084540 | 7 | 324 | 0.0 | 6.4 | 0.00 | 0.03 | 0.00 | 62 | 1014.3 |
| 20260505083041 | 6 | 350 | 0.0 | 4.8 | 0.00 | 0.03 | 0.00 | 62 | 1014.2 |
| 20260505081525 | 6 | 354 | 1.6 | 8.0 | 0.00 | 0.03 | 0.00 | 63 | 1014.1 |
| 20260505080032 | 6 | 323 | 0.0 | 8.0 | 0.00 | 0.03 | 0.00 | 63 | 1014.0 |
| 20260505074519 | 6 | 343 | 0.0 | 4.8 | 0.00 | 0.03 | 0.00 | 65 | 1014.0 |
| 20260505073024 | 5 | 354 | 1.6 | 4.8 | 0.00 | 0.03 | 0.00 | 69 | 1014.0 |
| 20260505071510 | 5 | 293 | 0.0 | 6.4 | 0.00 | 0.03 | 0.00 | 71 | 1013.9 |
| 20260505070008 | 5 | 322 | 0.0 | 3.2 | 0.00 | 0.03 | 0.00 | 75 | 1013.9 |
| 20260505064505 | 4 | 322 | 0.0 | 4.8 | 0.00 | 0.03 | 0.00 | 76 | 1014.0 |
| 20260505063003 | 4 | 325 | 0.0 | 3.2 | 0.00 | 0.03 | 0.00 | 77 | 1014.0 |
| 20260505061502 | 3 | 339 | 1.6 | 4.8 | 0.00 | 0.03 | 0.00 | 79 | 1014.1 |
| 20260505060104 | 3 | 339 | 0.0 | 4.8 | 0.00 | 0.03 | 0.00 | 83 | 1014.2 |
| 20260505054601 | 3 | 339 | 0.0 | 3.2 | 0.00 | 0.03 | 0.00 | 85 | 1014.1 |
| 20260505053059 | 2 | 135 | 0.0 | 4.8 | 0.00 | 0.03 | 0.00 | 86 | 1014.0 |
| 20260505051557 | 2 | 145 | 0.0 | 0.0 | 0.00 | 0.03 | 0.00 | 87 | 1014.1 |
| 20260505041601 | 1 | 347 | 0.0 | 3.2 | 0.00 | 0.03 | 0.00 | 87 | 1013.4 |
| 20260505040055 | 1 | 347 | 0.0 | 0.0 | 0.00 | 0.03 | 0.00 | 87 | 1013.3 |
| 20260505034550 | 0 | 346 | 0.0 | 0.0 | 0.00 | 0.03 | 0.00 | 86 | 1013.3 |
| 20260505033049 | 0 | 347 | 0.0 | 0.0 | 0.00 | 0.03 | 0.00 | 85 | 1013.6 |
| 20260505031548 | 1 | 346 | 0.0 | 0.0 | 0.00 | 0.03 | 0.00 | 85 | 1013.5 |
| 20260505030105 | 1 | 359 | 0.0 | 1.6 | 0.00 | 0.03 | 0.00 | 84 | 1013.4 |
| 20260505024549 | 1 | 346 | 0.0 | 0.0 | 0.00 | 0.03 | 0.00 | 83 | 1013.5 |